"Time","Temp","Dewpoint","Humidity","Pressure","Direction","Speed","Gust","Precip","PrecipRate"
"00:04:59","52.9","51.8","96","29.75","61","1","5","0.01","0.12"
"00:09:57","52.9","51.8","96","29.75","74","2","6","0.02","0.12"
"00:14:59","52.9","51.8","96","29.75","69","1.8","5","0.02","0.11"
"00:19:56","52.9","51.8","96","29.73","69","2.7","5","0.03","0.10"
"00:24:58","52.9","51.8","96","29.73","53","1.3","5","0.04","0.11"
"00:29:59","52.9","51.8","96","29.73","62","1","4.6","0.04","0.11"
"00:34:57","52.9","51.8","96","29.72","56","1","3.5","0.05","0.10"
"00:39:59","52.9","51.8","96","29.72","21","1.5","5","0.06","0.10"
"00:44:56","52.9","51.8","96","29.72","44","1","3.5","0.06","0.09"
"00:49:57","52.9","51.8","96","29.71","87","1.7","6","0.07","0.08"
"00:54:59","52.9","51.8","96","29.71","82","1.7","4","0.07","0.08"
"00:59:57","52.9","51.8","96","29.71","47","1.4","3.5","0.08","0.08"
"01:04:58","52.9","51.8","96","29.70","67","1.4","5","0.08","0.08"
"01:09:56","52.9","51.8","96","29.70","84","0.7","3","0.10","0.08"
"01:14:58","52.8","51.7","96","29.70","64","2","5","0.11","0.08"
"01:19:59","52.8","51.7","96","29.69","75","1.8","4","0.12","0.10"
"01:24:56","52.9","51.8","96","29.69","72","2.5","6","0.13","0.10"
"01:29:58","52.9","51.8","96","29.69","53","2","6","0.14","0.10"
"01:34:59","52.8","51.8","96","29.69","78","2.4","5","0.15","0.11"
"01:39:57","52.8","51.7","96","29.69","82","2.9","7","0.17","0.11"
"01:44:58","52.8","51.7","96","29.69","71","2.8","7","0.18","0.12"
"01:49:59","52.8","51.7","96","29.67","68","3.1","6.9","0.20","0.14"
"01:54:56","52.8","51.7","96","29.67","80","3.6","7","0.20","0.13"
"01:59:57","52.7","51.6","96","29.67","68","3.8","10","0.21","0.13"
"02:04:58","52.7","51.6","96","29.65","76","3.8","10.4","0.21","0.13"
"02:09:56","52.6","51.5","96","29.65","76","4","10.4","0.21","0.13"
"02:14:56","52.6","51.7","96.7","29.65","91","2.9","7","0.22","0.12"
"02:19:57","52.6","51.7","96.7","29.64","62","2.9","9.2","0.22","0.11"
"02:24:59","52.6","51.7","96.8","29.64","74","4.9","11.5","0.22","0.10"
"02:29:56","52.6","51.5","96","29.64","60","2.5","7","0.22","0.09"
"02:34:58","52.5","51.4","96","29.63","81","2.8","5.8","0.22","0.08"
"02:39:56","52.5","51.4","96","29.63","77","2.7","5","0.22","0.07"
"02:44:58","52.5","51.4","96","29.63","61","1.7","6","0.22","0.05"
"02:49:59","52.4","51.3","96","29.62","10","1.6","5","0.22","0.04"
"02:54:57","52.4","51.5","96.7","29.62","47","1.8","6","0.22","0.02"
"02:59:59","52.4","51.6","96.8","29.62","67","2.3","7","0.22","0.02"
"03:04:57","52.4","51.6","97","29.60","56","1.8","5","0.22","0.01"
"03:09:59","52.4","51.6","97","29.60","59","1.5","4","0.22","0.01"
"03:14:57","52.5","51.7","97","29.60","82","1.4","3.5","0.22","0.01"
"03:19:59","52.5","51.7","97","29.60","83","1.8","4","0.22","0.00"
"03:24:57","52.5","51.7","97","29.60","85","1.5","3.5","0.22","0.00"
"03:29:59","52.6","51.8","97","29.60","10","0.9","4","0.22","0.00"
"03:34:57","52.6","51.8","97","29.60","10","1.1","3.5","0.22","0.00"
"03:39:59","52.6","51.8","97","29.60","354","0.8","3.5","0.23","0.01"
"03:44:57","52.6","51.8","97","29.60","5","0.3","2.3","0.23","0.01"
"03:49:58","52.6","51.8","97","29.60","5","0.5","3","0.23","0.01"
"03:54:59","52.6","51.8","97","29.60","5","0.7","2.3","0.23","0.01"
"03:59:57","52.5","51.7","97","29.60","360","0","2","0.24","0.02"
"04:04:58","52.5","51.5","96.6","29.59","358","0.9","3.5","0.24","0.02"
"04:09:56","52.4","51.6","96.8","29.59","349","1.6","4","0.25","0.03"
"04:14:58","52.4","51.6","97","29.59","345","1.7","4","0.25","0.03"
"04:19:56","52.3","51.5","97","29.59","343","1.5","4","0.26","0.03"
"04:24:57","52.3","51.5","97","29.59","346","1.6","5","0.26","0.04"
"04:29:58","52.3","51.5","97","29.59","341","1.2","4","0.27","0.05"
"04:34:56","52.3","51.5","97","29.59","329","1.6","4","0.27","0.05"
"04:39:58","52.3","51.5","97","29.59","330","1.6","6","0.27","0.05"
"04:44:59","52.3","51.5","97","29.59","338","1.8","6","0.27","0.04"
"04:49:57","52.3","51.5","97","29.58","355","2","5.8","0.27","0.04"
"04:54:58","52.3","51.5","97","29.58","336","2.1","9.2","0.27","0.04"
"04:59:56","52.3","51.5","97","29.58","341","2.5","7","0.27","0.04"
"05:04:58","52.4","51.6","97","29.58","335","2.3","9","0.27","0.03"
"05:09:55","52.5","51.7","97","29.58","334","2.3","9.2","0.27","0.03"
"05:14:59","52.5","51.7","97","29.59","315","1.4","4","0.27","0.02"
"05:19:56","52.4","51.6","97","29.59","336","1.9","6","0.27","0.02"
"05:24:58","52.3","51.5","97","29.59","344","2.8","7","0.27","0.01"
"05:29:59","52.3","51.5","97","29.60","340","2.4","6","0.27","0.01"
"05:34:57","52.2","51.4","97","29.60","346","2.1","8.1","0.27","0.00"
"05:39:59","52.1","51.3","97","29.60","343","3.6","10.4","0.27","0.00"
"05:44:57","51.9","51.1","97","29.60","332","3.6","9.2","0.27","0.00"
"05:49:58","51.8","51","97","29.60","321","1.5","4.6","0.27","0.00"
"05:54:56","51.7","50.9","96.8","29.60","341","2.5","7","0.27","0.00"
"05:59:58","51.6","50.7","96.7","29.60","342","2","9.2","0.27","0.00"
"06:04:59","51.5","50.6","96.7","29.59","351","2.9","11.5","0.27","0.00"
"06:09:59","51.3","50.5","97","29.59","337","1.8","9","0.27","0.00"
"06:14:57","51.2","50.3","96.7","29.60","339","3.4","9.2","0.27","0.00"
"06:19:59","51","49.9","96","29.60","329","3","8.1","0.27","0.00"
"06:24:57","50.9","49.8","96","29.60","349","3","6","0.27","0.00"
"06:29:58","50.7","49.6","96","29.62","348","3","9","0.27","0.00"
"06:34:56","50.6","49.7","96.7","29.62","330","4.3","9.2","0.27","0.00"
"06:39:56","50.5","49.5","96.3","29.62","333","4.6","14","0.27","0.00"
"06:44:59","50.4","49.3","96","29.63","327","4.7","13.8","0.27","0.00"
"06:49:57","50.3","49.2","96","29.63","336","4.2","10.4","0.27","0.00"
"06:54:59","50.2","49.2","96.3","29.63","345","3","7","0.28","0.00"
"06:59:57","50.1","49.3","97","29.63","338","3.2","8.1","0.28","0.01"
"07:04:58","50.1","49.3","97","29.63","325","2.9","7","0.28","0.01"
"07:09:56","50.1","49.3","97","29.63","337","4.2","11.5","0.28","0.01"
"07:14:59","50.1","49.3","97","29.65","329","5","11.5","0.28","0.01"
"07:19:57","50.1","49.3","97","29.65","343","4.1","9.2","0.28","0.01"
"07:24:58","50.1","49.3","97","29.65","348","3.5","9.2","0.28","0.01"
"07:29:56","50.1","49.3","97","29.65","337","3.6","7","0.28","0.01"
"07:34:57","50.2","49.4","97","29.65","349","2.7","8.1","0.29","0.01"
"07:39:59","50.2","49.4","97","29.65","338","3.1","13","0.29","0.02"
"07:44:57","50.2","49.4","97","29.66","346","4.4","12.7","0.29","0.02"
"07:49:59","50.2","49.4","97","29.66","336","4.1","10.4","0.29","0.02"
"07:54:56","50.2","49.4","97","29.66","336","3","7","0.29","0.02"
"07:59:59","50.2","49.4","97","29.67","338","3.8","10","0.29","0.01"
"08:04:59","50.2","49.4","97","29.67","338","2.9","9","0.29","0.01"
"08:09:57","50.3","49.5","97","29.67","336","3.6","10.4","0.29","0.01"
"08:14:56","50.3","49.5","97","29.68","341","3.4","7","0.30","0.02"
"08:19:57","50.4","49.6","97","29.68","340","3.2","8.1","0.30","0.02"
"08:24:58","50.4","49.6","97","29.68","340","2.7","8.1","0.30","0.02"
"08:29:56","50.4","49.6","97","29.69","5","3.3","10.4","0.31","0.03"
"08:34:57","50.4","49.6","97","29.69","347","3","10.4","0.31","0.03"
"08:39:59","50.4","49.6","97","29.69","350","5.3","12","0.31","0.02"
"08:44:57","50.3","49.5","97","29.70","353","5","14","0.31","0.02"
"08:49:58","50.3","49.5","97","29.70","345","4","11.5","0.31","0.02"
"08:54:56","50.3","49.5","97","29.70","333","4","10","0.32","0.03"
"08:59:57","50.4","49.6","97","29.72","338","4.2","11.5","0.32","0.03"
"09:04:58","50.5","49.7","97","29.72","332","3.3","9.2","0.32","0.03"
"09:09:56","50.5","49.7","97","29.72","351","2.9","9.2","0.32","0.03"
"09:14:59","50.6","49.8","97","29.72","337","2.8","8","0.32","0.03"
"09:19:56","50.7","49.9","97","29.72","348","3.4","8.1","0.32","0.02"
"09:24:58","50.9","50.1","97","29.72","332","3.7","9.2","0.33","0.02"
"09:29:59","51","50.2","97","29.72","338","3","7","0.33","0.03"
"09:34:57","51.1","50.3","97","29.72","322","2.1","9.2","0.33","0.02"
"09:39:59","51.2","50.4","97","29.72","350","3.7","11.5","0.33","0.02"
"09:44:56","51","49.9","96.1","29.73","346","4.1","17.3","0.33","0.02"
"09:49:58","51","50.1","96.7","29.73","350","3.4","9.2","0.33","0.02"
"09:54:59","51","50.1","96.8","29.73","352","3.6","11.5","0.33","0.02"
"09:59:56","51.1","50.3","97","29.74","343","3.4","10.4","0.33","0.01"
"10:04:58","51.2","50.4","97","29.74","336","3.4","11.5","0.33","0.01"
"10:09:55","51.4","50.6","97","29.74","340","3.4","10.4","0.33","0.01"
"10:14:58","51.5","50.7","97","29.75","346","4","11","0.33","0.01"
"10:19:59","51.5","50.7","97","29.75","340","3.2","11.5","0.33","0.01"
"10:24:57","51.7","50.9","97","29.75","341","2.3","6","0.33","0.01"
"10:29:59","51.8","51","97","29.75","347","2.6","7","0.34","0.01"
"10:34:56","51.9","51.1","97","29.75","334","3.8","12","0.34","0.01"
"10:39:58","51.9","51.1","97","29.75","354","2.6","9.2","0.34","0.01"
"10:44:55","52","51.2","97","29.76","346","3.7","7","0.34","0.01"
"10:49:57","52","51.2","97","29.76","341","3","7","0.34","0.01"
"10:54:58","52.2","51.4","97","29.76","354","2.6","7","0.35","0.02"
"10:59:56","52.3","51.5","97","29.76","331","3.2","9","0.35","0.02"
"11:04:57","52.5","51.7","97","29.76","355","3.2","9.2","0.35","0.02"
"11:09:59","52.6","51.8","96.8","29.76","339","3.5","9","0.35","0.02"
"11:14:57","52.7","51.7","96.5","29.77","341","3.7","10","0.35","0.02"
"11:19:59","52.9","52","96.8","29.77","345","3.8","10.4","0.35","0.02"
"11:24:56","53.2","52.4","97.2","29.77","343","2.3","7","0.35","0.02"
"11:29:58","53.6","52.8","97","29.77","338","2.7","8","0.35","0.02"
"11:34:59","53.7","52.9","97","29.77","329","2.9","8.1","0.35","0.01"
"11:39:57","53.7","52.7","96.3","29.77","320","2.5","6","0.35","0.01"
"11:44:59","53.7","52.6","96","29.77","338","2.6","6","0.35","0.01"
"11:49:56","53.5","52.4","96","29.77","338","1.9","5","0.35","0.01"
"11:54:58","53.6","52.5","96","29.77","338","1.9","4.6","0.35","0.01"
"11:59:59","53.7","52.6","96","29.78","338","2.6","6","0.35","0.00"
"12:04:56","53.8","52.7","96","29.78","329","2.1","5","0.35","0.00"
"12:09:59","53.9","52.8","96","29.78","344","1.4","5","0.35","0.00"
"12:14:57","54","52.9","96","29.78","356","0.9","4","0.35","0.00"
"12:19:59","54.1","52.9","95.7","29.78","337","2.5","7","0.35","0.00"
"12:24:56","54","52.6","95","29.78","341","3.1","9.2","0.35","0.00"
"12:29:58","53.9","52.5","95","29.79","342","2.2","7","0.35","0.00"
"12:34:56","53.9","52.4","94.7","29.79","334","1.8","6.9","0.35","0.00"
"12:39:58","54","52.6","95","29.79","332","1.5","4","0.35","0.00"
"12:44:59","54.1","52.6","94.8","29.79","337","2.8","7","0.35","0.00"
"12:49:57","54","52.3","94.2","29.79","341","1.2","4.6","0.35","0.00"
"12:54:59","54.1","52.7","95","29.79","340","0.8","5","0.35","0.00"
"12:59:56","54.3","52.9","95","29.79","340","1.9","4.6","0.35","0.00"
"13:04:57","54.5","53.1","95","29.79","340","1.9","5","0.35","0.00"
"13:09:59","54.7","53.3","95.2","29.79","338","2.1","5","0.35","0.00"
"13:14:58","54.8","53.3","94.8","29.79","336","1.6","4","0.35","0.00"
"13:19:59","54.9","53.5","95","29.79","339","2.8","5","0.35","0.00"
"13:24:57","55","53.6","95","29.79","339","1.5","4","0.35","0.00"
"13:29:58","55","53.4","94.4","29.80","339","1.6","4","0.35","0.00"
"13:34:56","55","53.3","94.1","29.80","339","1.7","3.5","0.35","0.00"
"13:39:58","55.1","53.7","95","29.80","334","1.4","4","0.35","0.00"
"13:44:56","55.2","54","95.4","29.80","325","1.5","4","0.35","0.00"
"13:49:57","55.5","54.1","95.1","29.80","326","2","4","0.35","0.00"
"13:54:59","55.7","54.1","94.3","29.80","324","2.9","6","0.35","0.00"
"13:59:56","55.7","53.9","93.9","29.80","345","2","5","0.35","0.00"
"14:04:57","55.9","54.2","93.8","29.80","343","1.7","5.8","0.35","0.00"
"14:09:59","56.3","54.5","93.7","29.80","333","2.5","5","0.35","0.00"
"14:14:57","56.8","55","93.7","29.80","292","2.4","5","0.35","0.00"
"14:19:59","56.9","54.8","92.8","29.80","272","2.5","7","0.35","0.00"
"14:24:56","56.8","54.5","91.8","29.80","308","2.5","6.9","0.35","0.00"
"14:29:57","56.7","54.3","91.5","29.80","327","3.5","7","0.35","0.00"
"14:34:59","56.7","54.2","91.3","29.80","320","2.8","7","0.35","0.00"
"14:39:57","56.8","54.1","90.5","29.80","283","2.3","5","0.35","0.00"
"14:44:58","56.9","54.2","90.6","29.81","289","1.8","4","0.35","0.00"
"14:49:56","57.1","54.4","90.8","29.81","254","1.8","4","0.35","0.00"
"14:54:58","57.2","54.2","89.9","29.81","294","2.4","5","0.35","0.00"
"14:59:56","57.1","54","89.4","29.81","301","1.8","6","0.35","0.00"
"15:04:57","57.4","54.5","90","29.81","318","2.9","6","0.35","0.00"
"15:09:58","57.6","54.7","90","29.81","320","2.7","6","0.35","0.00"
"15:14:57","57.6","54.5","89.5","29.81","341","2.3","5","0.35","0.00"
"15:19:58","57.8","54.8","89.5","29.80","334","1","3.5","0.35","0.00"
"15:24:56","58.1","55","89.4","29.80","334","0.6","2.3","0.35","0.00"
"15:29:57","58.3","55.2","89.4","29.81","337","1.2","4","0.35","0.00"
"15:34:59","58.3","54.9","88.4","29.81","339","0.4","2.3","0.35","0.00"
"15:39:57","58.5","55.2","88.9","29.81","11","0.6","4","0.35","0.00"
"15:44:59","58.7","55.2","88","29.81","52","1.5","3.5","0.35","0.00"
"15:49:56","59","55.4","87.8","29.80","90","1.3","4","0.35","0.00"
"15:54:57","59.1","54.9","86","29.80","95","1.7","5","0.35","0.00"
"15:59:59","59.2","55.2","86.7","29.81","96","1","4","0.35","0.00"
"16:04:52","59.7","55.6","86.6","29.81","7","0.9","3.5","0.35","0.00"
"16:09:58","60.1","56.2","86.7","29.81","16","0.8","3.5","0.35","0.00"
"16:14:58","60.7","55.9","84.3","29.81","42","1.3","4","0.35","0.00"
"16:19:59","60.8","55.4","82.5","29.81","48","0.7","3.5","0.35","0.00"
"16:24:57","61","55.9","83.4","29.81","250","1.7","4","0.35","0.00"
"16:29:59","61","55.7","82.7","29.81","239","1.4","4","0.35","0.00"
"16:34:56","60.9","55.5","82.6","29.80","2","0.9","3.5","0.35","0.00"
"16:39:58","60.9","55.5","82.6","29.80","71","0.8","3.5","0.35","0.00"
"16:44:56","61","55.7","82.7","29.80","68","1.3","6","0.35","0.00"
"16:49:57","60.8","54.9","81","29.78","119","2.3","5.8","0.35","0.00"
"16:54:59","60.5","54.7","81.3","29.78","129","0.4","2.3","0.35","0.00"
"16:59:56","60.3","54.4","80.9","29.79","127","0.1","1.2","0.35","0.00"
"17:04:58","60.2","54.7","82","29.79","96","0.2","2.3","0.35","0.00"
"17:09:56","60","54.5","82","29.79","90","0","0","0.35","0.00"
"17:14:58","60","54.5","82","29.79","76","0.6","5","0.35","0.00"
"17:19:56","59.9","54.5","82.4","29.75","86","1.7","5","0.35","0.00"
"17:24:57","59.9","54.7","83","29.75","69","2.3","6","0.35","0.00"
"17:29:58","59.8","54.6","83","29.75","79","1.8","5.8","0.35","0.00"
"17:34:56","59.8","54.7","83.3","29.75","71","2.5","6","0.35","0.00"
"17:39:58","59.8","54.9","83.8","29.75","80","2.1","5.8","0.35","0.00"
"17:44:56","59.8","54.8","83.5","29.79","125","1.8","4","0.35","0.00"
"17:49:57","60","55.2","84.1","29.79","206","1.5","4","0.35","0.00"
"17:54:55","60.1","54.8","82.6","29.79","157","1.1","4","0.35","0.00"
"17:59:56","60.1","54.6","82.1","29.80","126","2","4","0.35","0.00"
"18:04:57","60.1","54.9","83.1","29.80","151","1.7","4","0.35","0.00"
"18:09:59","60","54.8","83.1","29.80","162","1.6","4","0.35","0.00"
"18:14:57","59.9","54.7","82.9","29.80","160","1.3","4","0.35","0.00"
"18:19:59","59.8","54.5","82.7","29.80","155","1","4","0.35","0.00"
"18:24:57","59.8","54.6","83","29.80","153","1.3","3.5","0.35","0.00"
"18:29:59","59.7","54.6","83.2","29.80","153","1","3.5","0.35","0.00"
"18:34:56","59.7","54.5","83","29.80","147","1.4","4","0.35","0.00"
"18:39:58","59.7","54.7","83.3","29.80","103","2.7","5","0.35","0.00"
"18:44:56","59.7","54.5","83","29.80","139","2","4","0.35","0.00"
"18:49:57","59.6","54.4","83","29.79","113","2.8","6","0.35","0.00"
"18:54:59","59.6","54.4","83","29.79","100","2.5","5","0.35","0.00"
"18:59:56","59.5","54.3","83","29.79","96","1.5","4.6","0.35","0.00"
"19:04:57","59.3","54.2","83.1","29.78","105","1.8","4","0.35","0.00"
"19:09:59","59.3","54.5","84","29.78","96","2.2","5","0.35","0.00"
"19:14:58","59.1","54.3","84","29.79","85","2","4","0.35","0.00"
"19:19:56","59","54.2","84","29.79","101","2.1","6","0.35","0.00"
"19:24:59","58.9","54.1","84","29.79","108","2.6","6","0.35","0.00"
"19:29:56","58.8","54","84.1","29.79","97","2.5","6","0.35","0.00"
"19:34:58","58.7","54.2","85","29.78","97","2.3","4","0.35","0.00"
"19:39:57","58.5","54","85","29.78","97","2","4","0.35","0.00"
"19:44:56","58.3","53.9","85.5","29.78","98","2","5","0.35","0.00"
"19:49:58","58.1","53.9","86","29.78","105","0.5","3.5","0.35","0.00"
"19:54:56","57.9","53.7","86","29.78","105","0.4","2.3","0.35","0.00"
"19:59:58","57.7","53.5","86","29.78","105","0.7","4","0.35","0.00"
"20:04:59","57.5","53.6","86.8","29.78","105","0.8","3.5","0.35","0.00"
"20:09:58","57.3","53.5","86.8","29.78","105","0.4","2.3","0.35","0.00"
"20:14:56","57.1","53.2","86.8","29.79","105","0.6","2.3","0.35","0.00"
"20:19:58","56.9","53.4","87.8","29.79","105","0.2","2.3","0.35","0.00"
"20:24:56","56.8","53.4","88.3","29.79","105","0.1","1.2","0.35","0.00"
"20:29:58","56.7","53.5","89","29.81","106","0.8","3.5","0.35","0.00"
"20:34:56","56.8","53.6","89","29.81","107","0.5","2.3","0.35","0.00"
"20:39:58","56.8","53.6","89","29.81","107","0.8","2.3","0.35","0.00"
"20:44:56","56.9","53.7","89","29.81","107","0.9","3.5","0.35","0.00"
"20:49:58","57","53.8","89","29.80","107","1.1","3.5","0.35","0.00"
"20:54:56","57.1","53.9","89","29.80","108","1.4","4","0.35","0.00"
"20:59:58","57.1","53.9","89","29.81","109","0.4","2.3","0.35","0.00"
"21:04:59","57","53.8","89","29.81","131","1.1","4","0.35","0.00"
"21:09:57","57.1","53.9","89","29.81","139","2.3","5","0.35","0.00"
"21:14:56","57.3","54.1","89","29.81","126","1.4","3.5","0.35","0.00"
"21:19:58","57.3","54.1","89","29.81","131","2.4","5","0.35","0.00"
"21:24:56","57.4","54.1","88.8","29.81","144","1.6","4","0.35","0.00"
"21:29:58","57.4","53.9","88","29.83","129","4.1","8.1","0.35","0.00"
"21:34:56","57.5","53.8","87.4","29.83","140","3.2","6","0.35","0.00"
"21:39:58","57.5","53.6","86.7","29.83","134","3.4","11.5","0.35","0.00"
"21:44:56","57.4","53.2","86","29.83","104","4.5","9.2","0.35","0.00"
"21:49:58","57.4","53.2","86","29.83","111","3.5","7","0.35","0.00"
"21:54:56","57.3","53.1","86","29.83","103","2.5","7","0.35","0.00"
"21:59:57","57.2","53","86","29.83","109","3.4","10.4","0.35","0.00"
"22:04:58","57.2","53","86","29.83","116","2.9","7","0.35","0.00"
"22:09:56","57.1","53","86","29.83","129","3.4","9.2","0.35","0.00"
"22:14:59","57.1","53","86","29.84","126","2.2","4.6","0.35","0.00"
"22:19:56","57","52.9","86","29.84","136","2.7","9","0.35","0.00"
"22:24:58","57","52.9","86","29.84","135","3.1","9.2","0.35","0.00"
"22:29:56","56.9","52.9","86.3","29.84","140","2.6","6.9","0.35","0.00"
"22:34:58","56.9","53.1","87","29.84","140","2.9","6","0.35","0.00"
"22:39:57","56.8","53","87","29.84","138","1.6","4","0.35","0.00"
"22:44:59","56.8","53","87","29.84","134","0.9","3.5","0.35","0.00"
"22:49:56","56.8","53","87","29.84","97","1.1","5","0.35","0.00"
"22:54:58","56.7","52.9","87","29.84","97","1.8","4","0.35","0.00"
"22:59:56","56.6","52.8","87","29.84","100","2.3","4","0.35","0.00"
"23:04:57","56.6","53","87.6","29.82","102","2.8","7","0.35","0.00"
"23:09:59","56.6","53.1","88","29.82","113","2.9","5","0.35","0.00"
"23:14:58","56.5","53","88","29.82","102","2.1","7","0.35","0.00"
"23:19:59","56.5","53","88","29.82","110","2.9","7","0.35","0.00"
"23:24:57","56.5","53.1","88.2","29.82","100","3.1","9.2","0.35","0.00"
"23:29:59","56.5","53.2","88.7","29.82","103","1.9","6","0.35","0.00"
"23:34:57","56.5","53.3","89","29.82","93","3","6","0.35","0.00"
"23:39:56","56.4","53.2","89","29.82","113","2.1","5","0.35","0.00"
"23:44:58","56.4","53.3","89.5","29.82","112","3.1","9.2","0.35","0.00"
"23:49:56","56.3","53.4","90","29.82","94","3.6","9.2","0.35","0.00"
"23:54:57","56.2","53.3","90","29.82","100","3.8","10","0.35","0.00"
"23:59:59","56.1","53.3","90.4","29.82","92","1.7","10.4","0.35","0.00"
